Temperature
18 18 18 18 18 18 18 18 18 18 18 18 18 18 18 18 18 18 17 17 17 17 17 17 17 17 17 17 17 17 17 17 17 16 16 16 16 16 16 16 16 16 16
18 18 18 18 18 18 18 18 18 18 18 18 18 18 18 18 18 18 18 17 17 17 17 17 17 17 17 17 17 16 16 17 17 16 16 16 16 16 16 16 16 16 16
18 18 18 18 18 18 18 18 18 18 18 18 18 17 17 17 17 17 17 17 17 17 17 17 17 17 17 17 17 16 16 16 16 16 16 16 16 16 16 16 16 16 16
18 18 18 18 18 18 18 18 18 18 17 17 17 17 17 17 17 17 17 17 17 17 17 17 17 17 17 16 16 16 16 16 16 16 16 16 16 16 16 16 16 16 15
18 18 18 18 18 18 18 18 18 18 18 17 17 17 17 17 17 17 17 17 17 17 17 17 16 16 16 16 16 16 16 16 16 16 16 16 16 16 16 16 15 15 15
18 18 18 18 18 18 18 18 17 17 17 17 17 17 17 17 17 17 17 17 17 17 16 16 16 16 16 16 16 16 16 16 16 16 16 16 16 16 16 15 15 15 15
18 18 18 18 18 18 18 17 17 17 17 17 17 17 17 16 16 16 16 16 16 16 16 16 16 16 16 16 16 16 16 16 16 15 15 16 15 15 15 15 15 15 15
18 18 18 18 18 18 18 17 17 17 17 17 17 17 16 16 16 16 16 16 16 16 16 16 16 16 16 16 15 15 15 15 15 15 15 15 15 15 15 15 15 15 15
18 18 18 18 18 18 17 17 17 17 17 17 17 17 16 16 16 15 15 15 15 15 15 15 15 15 15 15 15 15 15 15 15 15 15 15 15 15 15 15 15 15 14
18 18 18 17 17 17 17 17 17 17 17 17 17 17 17 17 16 15 15 15 15 15 15 15 15 15 15 15 15 15 15 15 15 15 15 15 15 14 14 14 14 14 14
18 18 18 17 17 17 17 17 17 17 17 17 17 17 17 16 16 16 15 15 15 15 15 15 15 15 15 14 14 14 15 15 15 14 14 14 14 14 14 14 14 14 14
18 18 18 17 17 17 17 17 17 17 17 17 17 17 17 16 16 16 15 15 15 14 14 14 14 14 14 14 14 14 14 14 14 14 14 14 14 14 14 14 14 13 13
18 18 18 17 17 17 17 17 17 17 17 17 17 17 17 16 16 16 16 15 14 14 14 14 14 14 14 14 14 14 14 14 14 14 14 14 14 14 13 13 13 13 13
18 18 17 17 17 17 17 17 17 17 17 17 17 17 17 16 16 16 16 15 14 14 14 13 14 14 14 13 13 13 13 13 13 13 13 13 13 13 13 13 13 13 13
18 18 17 17 17 17 17 17 17 17 17 17 17 17 16 16 16 16 16 15 15 14 13 13 13 13 13 13 13 13 13 13 13 13 13 13 13 13 13 13 13 13 12
18 18 17 17 17 17 17 17 17 17 17 17 17 17 16 16 16 16 15 15 15 15 14 13 13 13 13 13 13 12 13 13 12 12 12 12 12 12 12 12 12 12 12
18 18 18 17 17 17 17 17 17 16 16 16 16 16 16 16 16 16 15 15 15 14 14 14 13 13 13 12 12 12 12 12 12 12 12 12 12 12 12 12 12 11 11
18 18 18 18 17 17 17 17 17 16 16 16 16 16 16 16 16 15 15 15 15 14 14 14 13 13 12 12 12 12 12 12 12 12 12 12 12 11 11 11 11 11 11
18 18 18 18 17 17 17 17 17 16 16 16 16 16 16 15 15 15 15 15 14 14 14 14 13 13 12 12 12 12 12 12 12 12 12 11 11 11 11 11 11 11 10
18 18 18 18 17 17 17 17 16 16 16 16 16 15 15 15 15 15 15 15 14 14 14 13 13 13 12 12 12 12 12 12 12 11 11 11 11 11 11 11 10 10 10
18 18 18 18 17 17 17 16 16 16 16 16 16 15 15 15 15 15 15 14 14 14 14 13 13 13 12 12 12 12 12 11 11 11 11 11 11 11 11 10 10 10 10
18 18 18 17 17 17 16 16 16 16 16 16 15 15 15 15 15 14 14 14 14 14 14 13 13 13 13 12 12 12 11 11 11 11 11 11 11 10 10 10 10 10 10
18 18 18 17 17 17 16 16 16 16 16 15 15 15 15 15 14 14 14 14 14 13 13 13 13 13 12 12 12 12 11 11 11 11 11 11 11 10 10 10 10 10 10
18 18 17 17 17 16 16 16 16 16 16 15 15 15 15 14 14 14 14 14 13 13 13 13 13 12 12 12 12 12 11 11 11 11 11 10 10 10 10 10 10 10 10
18 17 17 17 17 16 16 16 16 16 15 15 15 14 14 14 14 14 14 13 13 13 13 12 12 12 12 12 11 11 11 11 11 11 10 10 10 10 10 10 10 10 9
18 17 17 16 16 16 16 16 16 16 15 15 14 14 14 14 14 13 13 13 13 13 12 12 12 12 12 11 11 11 11 11 11 10 10 10 10 10 10 10 10 10 9
Wind_Speed
1 1 1 1 1 2 1 1 2 2 2 2 2 2 2 2 2 2 2 3 4 5 7 8 10 11 11 11 11 11 11 11 11 11 11 11 11 11 11 11 11 11 11
1 1 1 1 1 1 2 2 1 2 1 2 2 2 2 2 1 1 1 2 2 2 3 6 7 8 8 9 10 11 11 11 11 11 11 11 11 12 12 12 12 12 12
2 2 1 1 1 2 3 2 2 3 2 2 2 2 2 2 1 1 1 1 0 0 1 2 3 5 6 7 8 10 11 12 12 12 12 11 11 12 12 12 13 13 13
3 2 2 1 2 3 3 2 2 3 2 2 2 2 2 2 2 2 2 2 2 1 1 1 1 2 3 3 4 6 8 10 12 12 12 11 11 11 11 12 12 12 12
2 3 2 1 3 3 2 2 3 3 3 3 2 3 3 2 2 3 3 3 3 3 2 2 2 2 2 2 4 5 5 7 8 9 10 10 10 9 9 10 11 11 11
3 3 2 2 3 3 2 3 3 3 2 2 4 4 4 3 3 3 3 4 4 3 3 3 3 3 4 4 4 3 3 3 4 5 6 6 7 7 7 7 7 8 9
3 3 2 2 2 3 3 3 3 4 3 3 3 3 4 5 5 4 4 4 4 4 4 4 4 3 4 5 6 5 3 1 1 2 2 3 5 5 5 5 4 5 6
2 3 3 2 2 3 3 3 4 2 2 2 2 2 1 2 4 5 4 3 3 4 5 5 5 5 5 5 6 6 5 3 1 0 1 1 2 2 2 3 4 4 4
2 2 3 2 2 3 3 3 4 4 2 1 1 2 2 2 1 3 4 4 4 4 4 5 6 6 5 5 5 6 6 5 4 2 1 2 2 2 2 2 3 3 3
2 2 3 3 2 2 2 3 3 2 3 2 1 1 1 3 2 1 2 3 4 4 4 4 5 6 6 5 6 8 8 7 6 5 4 3 2 1 1 2 3 3 4
2 2 2 2 2 1 1 2 2 2 2 3 2 1 2 1 2 2 1 1 2 3 3 3 4 5 6 6 6 8 9 9 8 6 6 5 4 3 2 1 2 3 3
1 1 1 1 1 1 1 1 2 2 2 2 2 2 2 2 2 2 2 2 1 1 2 3 3 4 5 6 7 8 9 10 10 9 8 6 6 5 5 4 2 2 3
0 1 1 1 1 1 1 1 2 1 2 2 2 2 2 2 3 3 4 2 1 0 1 2 2 3 5 5 6 8 9 10 10 10 9 8 7 7 7 7 7 6 6
2 1 1 1 1 1 1 1 1 1 1 1 1 1 2 2 3 4 4 4 2 1 1 0 2 3 4 5 6 7 8 9 10 10 10 11 10 10 10 10 9 8 8
2 2 2 2 1 1 1 2 1 1 1 1 1 1 1 1 2 2 4 4 4 3 2 1 1 1 2 4 5 6 7 8 9 10 11 11 12 11 11 11 11 11 11
2 2 2 2 1 1 1 2 2 1 2 1 1 1 1 1 2 3 3 2 2 3 2 1 1 1 2 3 5 5 6 7 9 9 10 10 11 11 11 11 11 12 13
3 3 2 2 2 1 1 2 2 2 2 1 1 1 1 2 2 2 3 3 3 3 3 1 1 1 2 3 3 4 5 6 6 8 9 9 9 9 10 11 12 12 12
3 3 3 2 2 2 2 2 2 2 2 2 1 2 1 1 2 2 2 3 3 3 4 4 2 2 2 2 2 2 3 4 4 6 6 7 7 8 8 9 9 10 10
3 3 3 3 2 3 3 3 3 2 2 2 2 2 1 2 2 2 2 3 3 3 3 4 3 1 1 2 2 2 2 2 3 3 4 4 5 5 6 6 7 7 7
4 4 3 3 3 3 3 3 3 3 2 2 2 2 2 2 2 3 3 3 4 4 4 5 3 2 2 2 2 1 1 1 1 2 2 2 3 3 4 4 5 5 5
4 4 3 3 3 3 3 3 3 3 3 2 2 2 1 2 3 3 3 4 5 4 4 4 3 2 2 2 2 2 2 1 0 0 1 1 1 1 1 2 3 4 4
4 3 3 3 3 2 4 6 5 3 3 2 2 1 1 2 2 3 4 6 6 6 6 4 3 4 4 3 3 3 3 2 1 1 1 0 0 1 1 1 2 4 4
4 3 3 3 2 2 5 6 6 4 3 2 2 1 1 1 2 2 4 4 3 4 6 5 5 5 5 5 5 4 4 3 2 2 2 1 1 1 2 3 4 5 5
4 4 3 3 3 2 4 5 6 4 3 2 2 2 2 1 1 3 3 3 2 1 3 3 4 5 4 5 5 5 4 3 1 2 3 1 1 2 2 3 5 6 7
4 4 4 4 4 3 5 6 6 4 3 2 1 1 2 2 2 4 4 3 1 0 1 2 3 3 3 5 6 4 4 3 2 2 3 2 1 1 2 2 4 7 8
4 4 4 3 4 3 5 7 7 4 3 2 1 1 1 2 2 4 4 3 3 2 1 1 1 2 2 4 6 5 5 4 2 2 3 3 2 1 2 2 2 4 5
Wind_Direction
97 98 92 87 98 107 97 83 84 78 66 65 82 107 122 139 154 155 166 178 188 204 208 210 212 215 214 212 211 212 213 218 218 217 217 219 220 220 219 217 218 218 219
149 125 109 107 121 137 131 117 108 91 78 80 73 88 104 101 134 156 176 193 201 204 214 217 221 218 220 220 222 222 220 223 223 222 222 225 226 225 225 225 226 226 226
157 146 129 127 143 130 122 106 89 89 90 81 68 70 80 94 126 147 145 132 161 238 231 208 230 230 228 227 230 230 230 231 226 224 225 228 231 230 228 229 230 230 231
156 144 133 146 147 128 117 110 107 97 87 83 66 44 56 65 76 86 89 78 64 35 39 42 336 283 252 234 234 235 235 234 233 230 228 230 234 234 231 231 231 232 233
150 140 137 134 124 112 108 125 116 121 111 94 76 58 48 46 49 61 75 77 69 56 42 28 7 0 329 303 273 261 250 237 233 231 230 230 231 232 231 234 235 235 235
133 129 127 118 122 116 111 117 117 108 110 104 81 62 48 46 52 56 64 72 67 60 51 40 24 356 7 4 354 335 272 243 219 219 224 227 229 230 229 233 236 236 237
125 127 125 115 124 131 136 132 122 109 100 106 91 68 50 50 54 47 52 62 61 59 61 54 45 32 18 17 18 13 3 301 220 220 223 226 233 237 227 216 218 223 224
136 145 135 134 129 126 125 131 130 123 126 123 117 110 73 42 43 42 46 54 53 57 56 53 51 44 35 30 21 21 16 10 359 110 161 185 201 205 204 205 203 201 202
138 133 129 126 126 138 156 162 156 153 164 165 142 144 148 171 82 41 43 47 48 51 47 51 49 42 38 34 23 23 26 22 21 31 96 136 151 172 193 198 192 187 187
106 126 128 128 134 147 167 186 174 168 163 177 156 110 147 152 150 122 44 43 47 48 43 42 41 38 34 35 36 39 39 40 41 46 57 75 98 147 188 201 190 182 177
68 106 127 131 137 153 170 174 165 167 172 177 172 152 120 98 124 147 150 75 52 47 49 45 47 42 36 38 45 47 47 47 48 50 56 68 72 69 65 88 164 168 159
36 61 123 133 148 165 181 186 176 173 183 176 177 174 170 166 161 149 154 155 115 57 50 44 44 43 42 41 50 53 54 54 54 57 59 64 68 67 63 59 68 118 134
224 264 166 152 179 192 175 159 153 168 182 184 192 195 186 184 158 147 146 148 140 115 69 51 36 45 50 48 51 55 59 59 58 60 62 68 72 70 67 62 61 73 85
211 207 166 160 158 147 139 133 131 162 162 184 199 184 179 176 159 153 152 149 143 134 83 52 40 49 55 60 59 59 61 60 61 63 66 69 71 70 70 68 66 72 78
186 166 161 154 144 134 136 131 122 135 126 134 146 144 147 150 154 155 153 158 156 171 198 187 142 79 86 79 69 67 65 66 68 69 72 74 74 74 72 72 71 74 81
157 146 146 143 124 111 115 120 113 109 109 91 109 114 116 132 133 146 155 159 161 161 169 168 177 153 118 104 81 74 73 72 70 73 76 78 78 76 76 75 75 77 80
163 160 157 144 138 126 117 122 127 119 113 97 90 114 121 130 136 145 146 147 146 143 152 153 132 132 123 113 92 85 79 76 74 75 78 79 81 81 80 80 82 81 81
168 159 146 139 138 126 121 127 125 116 119 115 107 105 102 115 119 136 146 152 155 150 151 156 149 142 134 137 113 96 87 83 81 80 82 85 86 84 84 86 90 88 85
162 154 148 150 149 139 130 130 128 120 118 118 118 118 116 125 131 141 144 150 150 141 137 149 154 144 135 137 116 93 83 69 91 91 87 89 92 93 94 97 101 101 100
164 167 167 165 159 147 139 136 127 119 109 101 103 114 123 140 158 159 150 148 139 131 130 138 146 148 144 142 142 142 114 55 73 84 82 92 98 103 106 113 118 117 115
172 169 161 157 161 158 157 150 145 134 123 106 90 88 104 125 142 158 156 154 145 140 142 147 156 157 167 171 182 180 177 162 17 126 80 62 96 99 108 132 138 136 133
160 154 162 165 172 185 162 154 150 142 135 129 115 86 86 87 109 121 140 154 156 159 165 166 178 191 199 196 182 179 171 170 228 191 172 156 144 234 231 208 190 177 170
161 155 160 151 159 186 168 158 151 147 143 143 138 122 101 76 96 116 126 132 147 163 173 175 188 205 205 200 185 185 188 195 214 186 176 218 221 249 246 233 216 203 192
165 168 166 158 149 167 156 146 142 139 137 145 155 159 140 115 118 129 132 129 137 171 195 195 202 208 206 196 194 191 184 176 183 183 182 216 235 256 264 245 222 210 204
166 167 158 164 164 173 162 157 148 139 138 144 143 142 151 151 140 136 136 140 141 241 171 171 186 186 178 176 170 153 158 169 209 214 193 203 223 250 258 255 237 220 216
167 160 157 169 172 179 174 164 156 149 153 164 153 177 169 171 163 154 155 161 183 214 168 138 121 128 151 162 172 184 184 187 199 225 195 191 194 199 252 247 240 229 225
Height
1542 1543 1543 1544 1545 1546 1547 1548 1549 1550 1550 1551 1552 1552 1553 1554 1555 1555 1556 1557 1557 1558 1558 1559 1560 1561 1561 1562 1563 1563 1564 1565 1566 1567 1568 1569 1570 1571 1572 1572 1573 1574 1575
1543 1544 1545 1545 1546 1547 1548 1549 1550 1550 1551 1552 1552 1553 1553 1554 1555 1555 1556 1556 1557 1558 1558 1559 1559 1560 1560 1561 1561 1562 1562 1563 1564 1565 1566 1567 1568 1569 1569 1570 1571 1572 1573
1544 1545 1546 1546 1547 1548 1549 1549 1550 1551 1551 1552 1552 1553 1553 1554 1554 1555 1555 1556 1556 1557 1557 1558 1558 1559 1559 1559 1559 1560 1560 1561 1562 1562 1563 1564 1565 1566 1567 1567 1568 1569 1570
1546 1546 1547 1547 1548 1549 1549 1550 1550 1551 1551 1552 1552 1553 1553 1553 1554 1554 1555 1555 1556 1556 1557 1557 1557 1558 1558 1558 1558 1558 1558 1558 1559 1560 1561 1562 1563 1563 1564 1565 1565 1566 1567
1546 1547 1547 1548 1548 1549 1549 1550 1550 1551 1551 1552 1552 1553 1553 1553 1553 1554 1554 1555 1555 1556 1556 1556 1556 1556 1556 1556 1556 1556 1556 1556 1556 1557 1558 1559 1560 1560 1561 1562 1562 1563 1563
1547 1547 1548 1548 1549 1549 1550 1550 1551 1551 1552 1552 1552 1552 1553 1553 1553 1554 1554 1554 1554 1555 1555 1555 1555 1555 1555 1555 1555 1554 1554 1554 1554 1554 1555 1556 1557 1557 1558 1558 1559 1559 1560
1547 1548 1548 1549 1549 1550 1550 1550 1551 1551 1552 1552 1552 1553 1553 1553 1553 1553 1553 1554 1554 1554 1554 1554 1554 1554 1554 1554 1553 1553 1552 1552 1552 1552 1553 1553 1554 1554 1555 1555 1555 1556 1556
1547 1548 1549 1549 1550 1550 1550 1550 1551 1551 1551 1552 1552 1552 1553 1555 1553 1553 1553 1553 1553 1554 1554 1554 1553 1553 1553 1552 1552 1552 1551 1551 1551 1551 1551 1551 1551 1551 1552 1552 1552 1552 1553
1548 1548 1548 1549 1549 1549 1549 1550 1550 1551 1551 1551 1552 1552 1552 1552 1553 1554 1553 1553 1553 1553 1553 1553 1553 1552 1552 1552 1551 1551 1550 1550 1549 1549 1549 1549 1549 1549 1549 1550 1550 1550 1550
1548 1548 1548 1549 1549 1549 1549 1549 1550 1550 1550 1550 1551 1551 1552 1552 1552 1553 1553 1553 1553 1553 1553 1553 1552 1552 1551 1551 1550 1550 1549 1549 1548 1548 1547 1547 1547 1547 1547 1547 1547 1547 1548
1548 1548 1548 1548 1548 1548 1548 1549 1549 1549 1549 1549 1550 1550 1550 1550 1551 1551 1552 1552 1553 1552 1552 1552 1552 1551 1551 1550 1550 1549 1548 1548 1547 1547 1546 1546 1546 1546 1546 1545 1545 1545 1545
1547 1548 1548 1548 1548 1548 1548 1548 1548 1548 1548 1548 1549 1549 1549 1549 1549 1549 1550 1550 1551 1552 1552 1551 1551 1551 1550 1550 1549 1549 1548 1547 1546 1546 1545 1545 1544 1544 1544 1544 1543 1543 1543
1547 1547 1547 1547 1547 1547 1547 1547 1547 1547 1547 1547 1547 1547 1547 1548 1548 1548 1548 1548 1549 1550 1550 1551 1550 1550 1550 1550 1549 1548 1548 1547 1546 1545 1545 1544 1543 1543 1543 1542 1542 1541 1541
1546 1547 1547 1547 1546 1546 1546 1546 1546 1546 1546 1546 1546 1546 1546 1546 1546 1546 1547 1547 1547 1549 1549 1550 1550 1550 1549 1549 1549 1548 1547 1547 1546 1545 1545 1544 1543 1543 1542 1541 1541 1540 1540
1546 1546 1546 1546 1546 1546 1546 1546 1545 1545 1545 1545 1545 1545 1544 1544 1544 1545 1545 1546 1547 1547 1548 1548 1549 1549 1549 1549 1548 1548 1547 1547 1546 1546 1545 1544 1543 1543 1542 1541 1540 1539 1540
1545 1545 1545 1545 1545 1545 1545 1545 1544 1544 1544 1544 1544 1543 1543 1543 1543 1543 1544 1544 1545 1546 1546 1546 1547 1548 1548 1548 1548 1548 1547 1547 1547 1546 1545 1545 1544 1543 1543 1542 1541 1540 1540
1544 1544 1544 1545 1544 1544 1544 1544 1543 1543 1543 1543 1542 1542 1542 1542 1542 1542 1542 1543 1544 1544 1544 1545 1546 1547 1547 1547 1547 1547 1548 1547 1547 1547 1546 1545 1545 1544 1543 1543 1542 1541 1541
1543 1543 1543 1543 1543 1543 1543 1543 1542 1542 1542 1541 1541 1541 1541 1541 1541 1541 1541 1542 1542 1543 1543 1543 1544 1545 1546 1547 1547 1547 1547 1547 1547 1547 1546 1546 1545 1545 1544 1544 1543 1543 1542
1541 1541 1542 1542 1542 1541 1541 1541 1541 1541 1540 1540 1540 1540 1540 1540 1540 1540 1540 1541 1541 1541 1542 1542 1543 1544 1545 1546 1546 1546 1547 1547 1547 1547 1546 1546 1546 1545 1545 1544 1543 1543 1543
1539 1539 1540 1540 1540 1540 1540 1540 1540 1540 1539 1539 1539 1539 1539 1539 1539 1539 1539 1540 1540 1540 1541 1541 1542 1543 1544 1545 1545 1546 1546 1546 1546 1546 1546 1546 1545 1545 1545 1544 1543 1543 1543
1536 1537 1537 1537 1538 1538 1538 1538 1539 1539 1538 1538 1538 1538 1538 1538 1538 1538 1538 1539 1539 1540 1540 1540 1541 1542 1542 1543 1544 1544 1545 1545 1545 1546 1545 1545 1545 1544 1544 1544 1544 1543 1543
1534 1534 1535 1535 1535 1535 1535 1536 1537 1537 1537 1537 1537 1537 1537 1537 1537 1537 1538 1538 1539 1539 1539 1539 1540 1540 1540 1541 1542 1543 1543 1544 1544 1545 1544 1544 1544 1544 1544 1543 1543 1543 1543
1531 1532 1533 1533 1533 1533 1533 1534 1535 1536 1536 1536 1536 1536 1536 1536 1536 1537 1537 1537 1537 1538 1538 1539 1538 1539 1539 1540 1540 1541 1541 1542 1542 1543 1543 1543 1543 1543 1543 1542 1542 1542 1542
1529 1529 1529 1530 1531 1531 1532 1532 1533 1533 1534 1534 1535 1535 1535 1535 1535 1536 1536 1536 1536 1536 1537 1537 1537 1537 1538 1538 1538 1539 1539 1540 1540 1541 1541 1541 1541 1541 1541 1541 1541 1541 1541
1525 1526 1527 1528 1529 1529 1530 1531 1531 1531 1532 1533 1533 1534 1534 1534 1534 1534 1534 1534 1535 1535 1535 1536 1536 1536 1536 1536 1537 1537 1537 1537 1537 1538 1539 1539 1539 1539 1539 1539 1539 1539 1539
1523 1525 1525 1526 1526 1527 1527 1528 1529 1529 1530 1531 1531 1532 1532 1532 1532 1532 1533 1533 1533 1533 1533 1534 1534 1534 1535 1535 1535 1535 1535 1536 1536 1536 1536 1537 1537 1537 1537 1537 1537 1537 1537